Weather History for KLGU - August, 2014

Change the Weather History Date:

Saturday, August 30, 2014

  Actual Average Record
Temperature  
Mean Temperature 66 °F -  
Max Temperature 82 °F 85 °F 94 °F (1981)
Min Temperature 52 °F 49 °F 34 °F (1964)
Cooling Degree Days 2    
Growing Degree Days 16 (Base 50)    
Moisture  
Dew Point 49 °F    
Average Humidity 57    
Maximum Humidity 93    
Minimum Humidity 25    
Precipitation  
Precipitation 0.00 in - - ()
Sea Level Pressure  
Sea Level Pressure 29.77 in    
Wind  
Wind Speed 6 mph (SW)    
Max Wind Speed 17 mph    
Max Gust Speed 36 mph    
Visibility 10 miles    
Events Rain , Thunderstorm    
Averages and records for this station are not official NWS values.
T = Trace of Precipitation, MM = Missing Value Source: NWS Daily Summary

Daily Weather History Graph

Daily Weather History Graph

Search for Another Location

Airport or City:

Trip Planner

Search our weather history database for the weather conditions in past years. The results will help you decide how hot, cold, wet, or windy it might be!

Date:

Astronomy

Aug. 30, 2014 Rise Set
Actual Time 6:51 AM MDT 8:03 PM MDT
Civil Twilight 6:22 AM MDT 8:32 PM MDT
Nautical Twilight 5:48 AM MDT 9:06 PM MDT
Astronomical Twilight 5:11 AM MDT 9:42 PM MDT
Moon 11:47 AM MDT (8/30) 10:35 PM MDT (8/30)
Length of Visible Light 14h 10m
Length of Day
13h 12m
Waxing Crescent, 23% of the Moon is Illuminated
Aug 30
Waxing Crescent
Sep 2
First Quarter
Sep 8
Full
Sep 15
Last Quarter
Sep 24
New

Hourly Weather History & Observations

Time (MDT) Temp. Dew Point Humidity Pressure Visibility Wind Dir Wind Speed Gust Speed Precip Events Conditions
12:51 AM 63.0 °F 53.1 °F 70% 29.80 in 10.0 mi NE 3.5 mph - N/A   Clear
1:51 AM 57.9 °F 53.1 °F 84% 29.78 in 10.0 mi West 4.6 mph - N/A   Clear
2:51 AM 60.1 °F 51.1 °F 72% 29.76 in 10.0 mi South 6.9 mph - N/A   Clear
3:51 AM 54.0 °F 50.0 °F 86% 29.77 in 10.0 mi North 4.6 mph - N/A   Clear
4:51 AM 54.0 °F 50.0 °F 86% 29.76 in 10.0 mi ENE 4.6 mph - N/A   Clear
5:51 AM 52.0 °F 50.0 °F 93% 29.78 in 10.0 mi NNE 6.9 mph - N/A   Clear
6:51 AM 55.0 °F 48.9 °F 80% 29.77 in 10.0 mi East 5.8 mph - N/A   Clear
7:51 AM 55.0 °F 51.1 °F 86% 29.80 in 10.0 mi NE 3.5 mph - N/A   Clear
8:51 AM 61.0 °F 54.0 °F 78% 29.79 in 10.0 mi West 3.5 mph - N/A   Clear
9:51 AM 66.9 °F 54.0 °F 63% 29.78 in 10.0 mi Calm Calm - N/A   Clear
10:51 AM 70.0 °F 55.0 °F 59% 29.81 in 10.0 mi Variable 6.9 mph - N/A   Clear
11:51 AM 77.0 °F 39.0 °F 25% 29.81 in 10.0 mi West 16.1 mph 35.7 mph N/A   Mostly Cloudy
12:51 PM 75.9 °F 39.9 °F 27% 29.82 in 10.0 mi SSW 17.3 mph 34.5 mph 0.00 in   Mostly Cloudy
1:51 PM 75.9 °F 44.1 °F 32% 29.81 in 10.0 mi South 13.8 mph - N/A   Clear
2:51 PM 80.1 °F 44.1 °F 28% 29.77 in 10.0 mi South 11.5 mph 21.9 mph N/A   Clear
3:51 PM 80.1 °F 44.1 °F 28% 29.75 in 10.0 mi South 11.5 mph 19.6 mph N/A   Partly Cloudy
4:51 PM 81.0 °F 43.0 °F 26% 29.73 in 10.0 mi South 8.1 mph - N/A   Clear
5:51 PM 80.1 °F 43.0 °F 27% 29.73 in 10.0 mi SW 3.5 mph - N/A   Clear
6:51 PM 78.1 °F 46.0 °F 32% 29.70 in 10.0 mi SSE 3.5 mph - N/A   Clear
7:51 PM 70.0 °F 51.1 °F 51% 29.73 in 10.0 mi NNW 12.7 mph - N/A   Clear
9:51 PM 64.9 °F 48.9 °F 56% 29.73 in 7.0 mi SW 5.8 mph - N/A   Clear
10:51 PM 64.9 °F 48.0 °F 54% 29.73 in 7.0 mi SW 5.8 mph - N/A   Scattered Clouds
11:30 PM 63.0 °F 52.0 °F 67% 29.87 in 7.0 mi Calm Calm - 0.00 in Rain , Thunderstorm Light Rain
11:51 PM 63.0 °F 52.0 °F 67% 29.74 in 7.0 mi WNW 3.5 mph - 0.00 in   Scattered Clouds